TimeEST,TemperatureF,Dew PointF,Humidity,Sea Level PressureIn,VisibilityMPH,Wind Direction,Wind SpeedMPH,Gust SpeedMPH,PrecipitationIn,Events,Conditions,WindDirDegrees,DateUTC
12:09 AM,55.4,51.8,88,29.87,8.0,SSW,15.0,23.0,0.01,Rain,Light Rain,200,2011-12-15 05:09:00
12:16 AM,55.4,51.8,88,29.87,10.0,SSW,18.4,26.5,0.02,Rain,Light Rain,200,2011-12-15 05:16:00
12:53 AM,55.0,52.0,89,29.86,4.0,SSW,19.6,29.9,0.16,Rain,Rain,200,2011-12-15 05:53:00
1:53 AM,55.0,52.0,89,29.81,10.0,SSW,20.7,38.0,0.07,Rain,Light Rain,200,2011-12-15 06:53:00
2:53 AM,55.0,52.0,89,29.79,9.0,SSW,20.7,32.2,0.01,Rain,Light Rain,200,2011-12-15 07:53:00
3:53 AM,55.9,52.0,87,29.79,10.0,SSW,20.7,29.9,0.00,,Overcast,210,2011-12-15 08:53:00
4:53 AM,55.9,52.0,87,29.77,8.0,SSW,20.7,29.9,0.00,Rain,Light Rain,210,2011-12-15 09:53:00
5:27 AM,55.4,51.8,88,29.78,4.0,SSW,17.3,28.8,0.03,Rain,Light Rain,210,2011-12-15 10:27:00
5:53 AM,55.0,52.0,89,29.77,4.0,SSW,17.3,28.8,0.05,Rain,Light Rain,210,2011-12-15 10:53:00
7:53 AM,55.9,54.0,93,29.75,5.0,SW,16.1,21.9,0.03,Rain,Light Rain,220,2011-12-15 12:53:00
9:53 AM,57.9,54.0,87,29.75,10.0,SW,16.1,25.3,0.01,,Mostly Cloudy,230,2011-12-15 14:53:00
10:03 AM,59.0,55.4,88,29.77,10.0,SW,13.8,24.2,N/A,,Mostly Cloudy,230,2011-12-15 15:03:00
10:53 AM,60.1,53.1,78,29.77,10.0,WSW,19.6,29.9,N/A,,Mostly Cloudy,250,2011-12-15 15:53:00
10:58 AM,57.2,51.8,82,29.81,1.8,West,29.9,43.7,0.05,Rain,Heavy Rain,270,2011-12-15 15:58:00
11:08 AM,53.6,48.2,82,29.81,2.5,West,18.4,38.0,0.07,Rain,Light Rain,270,2011-12-15 16:08:00
11:15 AM,53.6,50.0,88,29.81,7.0,West,18.4,29.9,0.07,Rain,Light Rain,270,2011-12-15 16:15:00
11:40 AM,53.6,48.2,82,29.82,10.0,West,20.7,27.6,0.07,,Overcast,270,2011-12-15 16:40:00
11:53 AM,54.0,48.0,80,29.81,10.0,West,26.5,36.8,0.07,,Overcast,260,2011-12-15 16:53:00
12:53 PM,50.0,46.0,86,29.83,10.0,WNW,21.9,27.6,N/A,,Overcast,290,2011-12-15 17:53:00
1:25 PM,48.2,44.6,87,29.85,10.0,West,23.0,36.8,N/A,,Overcast,280,2011-12-15 18:25:00
1:53 PM,46.9,42.1,83,29.86,10.0,WNW,17.3,28.8,N/A,,Overcast,290,2011-12-15 18:53:00
2:13 PM,46.4,41.0,81,29.88,10.0,WNW,17.3,27.6,N/A,,Overcast,290,2011-12-15 19:13:00
2:53 PM,44.1,39.0,82,29.90,10.0,WNW,18.4,29.9,N/A,,Overcast,300,2011-12-15 19:53:00
3:17 PM,42.8,35.6,76,29.93,10.0,WNW,23.0,34.5,N/A,,Overcast,290,2011-12-15 20:17:00
3:53 PM,42.1,35.1,76,29.95,10.0,WNW,19.6,32.2,N/A,,Overcast,290,2011-12-15 20:53:00
4:53 PM,41.0,33.1,73,29.98,10.0,West,17.3,26.5,N/A,,Overcast,260,2011-12-15 21:53:00
5:53 PM,39.0,30.9,73,30.02,10.0,West,20.7,34.5,N/A,,Overcast,270,2011-12-15 22:53:00
6:53 PM,37.0,28.9,73,30.06,9.0,West,28.8,35.7,0.00,Snow,Light Snow,280,2011-12-15 23:53:00
7:53 PM,34.0,26.1,73,30.11,9.0,WNW,20.7,36.8,0.00,Snow,Light Snow,290,2011-12-16 00:53:00
8:53 PM,34.0,25.0,70,30.14,9.0,WNW,17.3,26.5,0.00,Snow,Light Snow,290,2011-12-16 01:53:00
9:53 PM,33.1,24.1,70,30.17,9.0,WNW,16.1,26.5,0.00,Snow,Light Snow,300,2011-12-16 02:53:00
10:53 PM,33.1,24.1,70,30.18,10.0,WNW,18.4,26.5,0.00,Snow,Light Snow,290,2011-12-16 03:53:00
11:53 PM,33.1,24.1,70,30.21,9.0,WNW,16.1,25.3,0.00,Snow,Light Snow,290,2011-12-16 04:53:00